Location: Habighorst
(52.7089°N, 10.2278°E)
Time: 06:56:40
(UTC+00:00)

Lacrosse 5 rocket - Pass Details

Date: 13 January 2026
Orbit: 400 x 481 km, 57.0° (Epoch: 18 February)

Event Time Altitude Azimuth Distance (km) Brightness Sun altitude
Exits shadow 03:52:31 18° 65° (ENE) 1,278 3.8 -31.3°
Drops below altitude 10° 03:53:33 10° 64° (ENE) 1,684 4.6 -31.1°
Sets 03:55:44 0° 63° (ENE) 2,571 5.7 -30.8°
